Regional Weather Roundup
Issued by NWS

Home | Current Version | Previous Version | Graphics & Text | Print | Product List | Glossary On
Versions: 1 2 3 4 5 6 7 8 9 10 11 12 13 14 15 16 17 18 19 20 21 22 23 24 25 26 27 28 29 30 31 32 33 34 35 36 37 38 39 40 41 42 43 44 45 46 47 48 49 50
000
ASUS43 KIND 251109
RWRIN

WEATHER ROUNDUP FOR INDIANA
NATIONAL WEATHER SERVICE INDIANAPOLIS IN
600 AM EST SAT FEB 25 2017

NOTE: "FAIR" INDICATES FEW OR NO CLOUDS BELOW 12,000 FEET WITH NO
SIGNIFICANT WEATHER AND/OR OBSTRUCTIONS TO VISIBILITY.

* - STATION DOES NOT REPORT WEATHER SUCH AS PRECIPITATION OR FOG.

+ - STATION NOT QUALITY CONTROLLED BY THE NATIONAL WEATHER SERVICE.
    USE DATA WITH CAUTION...ESPECIALLY DEWPOINT AND RELATIVE
    HUMIDITY OBSERVATIONS.

INZ001>003-010>013-019-020-251200-
NORTHWEST INDIANA

CITY           SKY/WX    TMP DP  RH WIND       PRES   REMARKS
GARY /AIRPORT/ MOCLDY    32  23  69 W14       29.66R WCI  22
KNOX *+        CLOUDY    32   5  32 W16G26    29.64R WCI  21
LA PORTE +     CLOUDY    31  22  68 NW8G20    29.63R WCI  24
MICHIGAN CITY+ CLOUDY    32  23  69 W12       29.64R WCI  23
MONTICELLO +   FLURRIES  32  29  88 W14       29.67R WCI  22
RENSSELAER +     N/A     32  28  86 W18       29.68R WCI  20
VALPARAISO     CLOUDY    32  24  72 W20       29.65R WCI  20

$$

LMZ046-743>745-251200-
SOUTHERN LAKE MICHIGAN

STATION/POSITION TIME  TEMP    WIND        PRES    WAVE
                       AIR SEA DIR/SP/G            HT
                 (UTC) (F)     (DEG/KT/KT) (MB)    (FT)
BURNS HARBOR     1040   32     280/ 17/ 22 1004.1R
MICHIGAN CITY    1040   31     250/ 23/ 25   N/A

$$

INZ004-005-014>016-021>024-251200-
NORTH CENTRAL INDIANA

CITY           SKY/WX    TMP DP  RH WIND       PRES   REMARKS
GOSHEN         CLOUDY    34  26  72 W17       29.59R WCI  23
LOGANSPORT +   FLURRIES  32  30  93 W13       29.67R WCI  22
PERU/GRISSOM   FLURRIES  32  32 100 W18       29.63R WCI  20
ROCHESTER +    CLOUDY    34  28  80 W17       29.64R WCI  23
SOUTH BEND     CLOUDY    31  25  78 W12       29.61R WCI  22
WARSAW +       CLOUDY    34  27  75 W18G25    29.61R WCI  23

$$

INZ006>009-017-018-025>027-251200-
NORTHEAST INDIANA

CITY           SKY/WX    TMP DP  RH WIND       PRES   REMARKS
ANGOLA *+      CLOUDY    36  32  87 W8        29.55R
AUBURN +       CLOUDY    37  32  81 SW9       29.58R
FORT WAYNE     MOCLDY    37  32  82 W15       29.60R
HUNTINGTON +   CLOUDY    36  33  88 W15       29.61R
KENDALLVILLE + CLOUDY    36  30  79 W14G22    29.57R

$$

INZ028-029-035-036-043>045-051>053-251200-
WEST CENTRAL INDIANA

CITY           SKY/WX    TMP DP  RH WIND       PRES   REMARKS
LAFAYETTE      LGT SNOW  31  30  96 W12       29.69R FOG     WCI  22
TERRE HAUTE    CLOUDY    31  24  75 W21G29    29.80R WCI  18

$$

INZ030>032-037>040-046>048-054>057-064-065-251200-
CENTRAL INDIANA

CITY           SKY/WX    TMP DP  RH WIND       PRES   REMARKS
CP ATTERBURY + CLOUDY    36  25  64 W12G21    29.76R
FRANKFORT +    CLOUDY    34  32  92 W24G30    29.70R FOG     WCI  22
GREENWOOD *+   CLOUDY    36  26  66 W14       29.73R
INDIANAPOLIS   CLOUDY    33  27  78 W23G31    29.73R WCI  21
-EAGLE CREEK   CLOUDY    34  27  75 W17G30    29.71R WCI  23
KOKOMO +       LGT SNOW  34  30  86 W17       29.66R VSB 1   WCI  23
MARION +       FLURRIES  35  32  88 W21G33    29.65R WCI  24
MT COMFORT *+  CLOUDY    34  28  80 SW15      29.71R WCI  24
SHELBYVILLE    CLOUDY    37  25  61 W21G29    29.71R
ZIONSVILLE +   FLURRIES  32  30  92 W22       29.70R WCI  19

$$

INZ033-034-041-042-049-050-058-059-251200-
EAST CENTRAL INDIANA

CITY           SKY/WX    TMP DP  RH WIND       PRES   REMARKS
MUNCIE         CLOUDY    38  28  67 W15G31    29.65R

$$

INZ060-061-067>069-081>083-085>088-251200-
SOUTHWEST INDIANA

CITY           SKY/WX    TMP DP  RH WIND       PRES   REMARKS
EVANSVILLE     CLOUDY    35  22  58 W17G24    29.88R WCI  25
HUNTINGBURG *+ CLOUDY    34  21  60 W20       29.86R WCI  22
WASHINGTON +   CLOUDY    33  22  64 W15       29.84R WCI  23

$$

INZ062-063-066-070>080-084-089>092-251200-
SOUTH CENTRAL AND SOUTHEAST INDIANA

CITY           SKY/WX    TMP DP  RH WIND       PRES   REMARKS
BEDFORD +      CLOUDY    34  25  69 W12G26    29.78R WCI  25
BLOOMINGTON    CLOUDY    34  23  64 W17G25    29.77R WCI  23
MADISON *+     CLOUDY    39  30  70 W22       29.77R
NORTH VERNON + CLOUDY    39  27  60 W17G25    29.74R
SEYMOUR +      CLOUDY    39  25  56 W21G35    29.77R

$$





USA.gov is the U.S. government's official web portal to all federal, state and local government web resources and services.